User: anonymous   Login
Location: Unspecified
(0.0000°N, 0.0000°E)
Time: 00:14:35
(UTC+00:00)
Language:

LATINSAT B - Orbit

View from above orbital plane
View from above orbital plane
View from above satellite
View from above satellite

Ground track
Ground track

The orbit data is extracted from the following two-line orbital elements,

1 27606U 02058B   21332.36178004  .00000124  00000-0  40580-4 0  9994
2 27606  64.5563 282.3343 0066354 347.7945  12.1545 14.72415686 17088
Epoch (UTC): 28 November 2021 08:40:57
Eccentricity: 0.0066354
inclination: 64.5563°
perigee height: 607 km
apogee height: 700 km
right ascension of ascending node: 282.3343°
argument of perigee: 347.7945°
revolutions per day: 14.72415686
mean anomaly at epoch: 12.1545°
orbit number at epoch: 1708

The dashed part of the orbit path shows where the satellite is in the earth's shadow,  

DLR